Regional Weather Roundup
Issued by NWS

Home | Current Version | Previous Version | Text Only | Print | Product List | Glossary On
Versions: 1 2 3 4 5 6 7 8 9 10 11 12 13 14 15 16 17 18 19 20 21 22 23 24 25 26 27 28 29 30 31 32 33 34 35 36 37 38 39 40 41 42 43 44 45 46 47 48 49 50
000
ASUS43 KMKX 031500
RWRWI

WISCONSIN REGIONAL WEATHER ROUNDUP
NATIONAL WEATHER SERVICE MILWAUKEE/SULLIVAN WI
1000 AM CDT FRI JUL 03 2015

NOTE: "FAIR" INDICATES FEW OR NO CLOUDS BELOW 12,000 FEET WITH NO
SIGNIFICANT WEATHER AND/OR OBSTRUCTIONS TO VISIBILITY.

WIZ001-002-006>008-014>016-023>028-031600-
NORTHWEST WISCONSIN

CITY           SKY/WX    TMP DP  RH WIND       PRES   REMARKS
SUPERIOR ARPT  MOSUNNY   67  59  73 W7        29.89F
ASHLAND        PTSUNNY   66  56  70 SW10      29.90F
HAYWARD        PTSUNNY   67  53  61 SW8       29.95F
SIREN          PTSUNNY   67  55  64 W5        29.96S
CUMBERLAND     MOSUNNY   64  54  68 SW6       29.96F
RICE LAKE      MOSUNNY   68  56  65 W6        29.98F
CHETEK         MOSUNNY   68  59  72 SW5       29.96F
LADYSMITH      MOSUNNY   68  58  70 W5        29.98F
EAU CLAIRE     SUNNY     68  58  70 W3        29.96F
MENOMONIE      SUNNY     68  58  70 SW3       29.98F
NEW RICHMOND   MOSUNNY   67  57  68 W7        29.97F
OSCEOLA        MOSUNNY   67  61  79 W3        29.99F
$$

WIZ003>005-009-010-017-018-031600-
NORTH CENTRAL WISCONSIN

CITY           SKY/WX    TMP DP  RH WIND       PRES   REMARKS
MANITOWISH WTR MOSUNNY   65  56  70 W10       29.94F
ARBOR VITAE    MOSUNNY   65  56  72 SW6       29.96F
WOODRUFF       MOSUNNY   65  56  72 SW6       29.96F
RHINELANDER    MOSUNNY   66  55  67 SW7       29.98S
EAGLE RIVER    MOSUNNY   63  54  72 SW8       29.96S
LAND O LAKES   PTSUNNY   64  55  70 W8        29.96F
PHILLIPS       PTSUNNY   65  56  70 SW5       29.96F
TOMAHAWK       MOSUNNY   65  55  68 W3        29.98S
MEDFORD        SUNNY     65  56  71 W6        29.99S
MERRILL        MOSUNNY   64  56  77 CALM      29.99S
$$

WIZ029-030-035-036-043>047-031600-
CENTRAL WISCONSIN

CITY           SKY/WX    TMP DP  RH WIND       PRES   REMARKS
WAUSAU         SUNNY     66  54  65 SW6       29.97F
MOSINEE        SUNNY     63  55  77 SW5       30.00F
MARSHFIELD     SUNNY     66  55  67 SW7       29.99F
STEVENS POINT  SUNNY     63  51  65 S3        30.00F
WAUPACA        SUNNY     68  53  58 SW5       30.00F
WAUTOMA        NOT AVBL
WISC RAPIDS    SUNNY     66  53  63 VRB5      30.00F
CAMP DOUGLAS   NOT AVBL
$$

WIZ011>013-019>022-031-037>040-048>050-031600-
NORTHEAST WISCONSIN

CITY           SKY/WX    TMP DP  RH WIND       PRES   REMARKS
ANTIGO         SUNNY     62  53  71 W7        29.99F
SHAWANO        SUNNY     66  52  60 W8        29.99S
OCONTO         SUNNY     65  54  66 SW8       29.97F
STURGEON BAY   SUNNY     66  54  63 SW10      29.99F
GREEN BAY      SUNNY     68  54  60 W8        29.99F
MANITOWOC      NOT AVBL
APPLETON       SUNNY     66  54  63 W7        30.00F
CLINTONVILLE   SUNNY     64  50  59 SW7       29.99F
OSHKOSH        SUNNY     67  52  58 VRB3      29.99F
$$

WIZ032>034-041-042-053>061-031600-
SOUTHWEST WISCONSIN

CITY           SKY/WX    TMP DP  RH WIND       PRES   REMARKS
LA CROSSE      SUNNY     67  57  70 S5        29.98F
SPARTA         SUNNY     65  53  65 CALM      30.00F
VIROQUA        SUNNY     66  55  68 W3        30.02S
BOSCOBEL       SUNNY     67  56  67 W3        30.01S
PRAIRIE DU CHI SUNNY     63  56  77 CALM      30.01S
PLATTEVILLE    SUNNY     65  56  73 CALM      30.01R
$$

WIZ056-057-062-063-064-067-068-031600-
SOUTH CENTRAL WISCONSIN

CITY           SKY/WX    TMP DP  RH WIND       PRES   REMARKS
REEDSBURG      SUNNY     64  56  77 W3        30.00S
BARABOO/DELLS  SUNNY     65  53  64 NW3       30.00F
LONE ROCK      NOT AVBL
MINERAL POINT  SUNNY     66  54  63 CALM      30.01S
MADISON        MOSUNNY   68  52  56 CALM      30.00S
MIDDLETON      MOSUNNY   66  52  59 CALM      30.01S
WATERTOWN      SUNNY     65  54  67 CALM      30.00S
MONROE         MOSUNNY   63  54  72 CALM      30.00S
JANESVILLE     SUNNY     66  54  63 N5        29.99S
$$

WIZ051-052-058>065-066-070>072-031600-
SOUTHEAST WISCONSIN

CITY           SKY/WX    TMP DP  RH WIND       PRES   REMARKS
MILWAUKEE      PTSUNNY   65  53  65 NE3       30.00S
WAUKESHA       SUNNY     66  52  59 CALM      30.00F
MILWAUKEE/TIMM NOT AVBL
RACINE         PTSUNNY   64  53  67 NE5       30.02R
BURLINGTON     MOSUNNY   64  54  70 CALM      29.99S
KENOSHA        MOSUNNY   67  56  67 E5        30.00S
FOND DU LAC    SUNNY     67  52  58 CALM      30.00F
SHEBOYGAN      SUNNY     69  55  60 SW5       29.99F
WEST BEND      SUNNY     68  52  56 SW6       30.00S
JUNEAU         SUNNY     64  53  67 SW3       30.02S
$$

LSZ147-162-031600-
LAKE SUPERIOR

STATION/POSITION TIME  TEMP    WIND        PRES    WAVE
                       AIR SEA DIR/SP/G            HT/PER
                 (UTC) (F)     (DEG/KT/KT) (MB)    (FT/S)
W MID LAKE BUOY  1350   48 38  220/ 14/ 16 1011.1S   2/ 4
DEVILS ISLAND    1400   64     240/ 21/ 24 1011.3F
SAXON HARBOR     1440   67     200/  8/ 13 1012.2F
$$

LMZ867-665-643>646-031600-
LAKE MICHIGAN

STATION/POSITION TIME  TEMP    WIND        PRES    WAVE
                       AIR SEA DIR/SP/G            HT/PER
                 (UTC) (F)     (DEG/KT/KT) (MB)    (FT/S)
CHAMBERS ISLAND  1400   64     200/  5/ 12 1014.9S
S GREEN BAY BUOY 1400   64 68  230/ 12/ 14 1016.6F
N MID LAKE BUOY  1350   50 44  190/ 10/ 12 1014.7F   0
NORTHPORT PIER   1400   66     200/  3/ 10 1014.6F
SISTER BAY       1344   66     270/ 10/ 11   N/A
ALGOMA LAKESHORE 1410          260/  7/  9   N/A
KEWAUNEE LAKESHO 1400   61     160/  6/  7 1014.9S
SHEBOYGAN LAKESH 1400   60     130/  3/  4 1016.2S
PORT WASHINGTON  1400   62      90/  2/  3 1016.6S
ATWATER BUOY     1400   59      10/  4/  6 1017.2F
MILWAUKEE LAKESH 1400   59      50/  7/  8   N/A
KENOSHA   LAKESH 1400   59      40/  6/  6 1015.9R
$$

TC  - TEMPERATURE IN CELSIUS
VSB - VISIBILITY IN STATUTE MILES
WCI - WIND CHILL INDEX
HX  - HEAT INDEX




USA.gov is the U.S. government's official web portal to all federal, state and local government web resources and services.